Location: Bacharowice
(49.9333°N, 19.5833°E)
Time: 03:25:55
(UTC+00:00)

Nadezhda 1 Rocket - Pass Details

Date: 11 May 2021
Orbit: 940 x 1006 km, 83.0° (Epoch: 22 June)

Event Time Altitude Azimuth Distance (km) Brightness Sun altitude
Exits shadow 21:19:50 18° 210° (SSW) 2,219 5.5 -19.8°
Maximum altitude 21:24:32 57° 284° (WNW) 1,150 4.5 -20.0°
Drops below altitude 10° 21:30:41 10° 3° (N) 2,725 7.4 -20.3°
Sets 21:33:15 0° 8° (N) 3,666 8.2 -20.5°
